Kosmos-1998

operational
NORAD ID: 19789 Int'l Des: 1989-009 Owner: UNKS Country: SU
LEOCIRCULARPOLAR

关于 Kosmos-1998

正在加载描述...

实时位置

正在加载3D地球...

即将过境

高度历史

Altitude vs Time

uPlot chart will show altitude changes over time

两行轨道根数

1 19789U 89009E 26072.28957919 .00000035 00000-0 12980-3 0 9998
2 19789 82.6130 32.7015 0016657 136.0430 224.1991 12.64931256711899
Epoch: Mar 13, 2026 • Age: 36 hours

当前状态

高度 1408.3 km
速度 7.17 km/s
星下点 74.79°N, 70.74°E
发射日期 Feb 10, 1989
运行时间 37 years
类型 other

技术详情

分类 Payload
质量 225.00 kg
干质量 225.00 kg
总质量 225.00 kg
长度 1.60 m
直径 0.80 m
跨度 7.00 m
形状 Cyl + Ant
制造商 NPOPM
平台类型 Strela-3
阶段状态 In Orbit
所有者/国家 UNKS/SU

大型星座

Loading constellations...